Location: Unspecified
(0.0000°N, 0.0000°E)
Time: 08:06:29
(UTC+00:00)

Vanguard 2 - Pass Details

Date: 20 December 2018
Orbit: 553 x 2939 km, 32.9° (Epoch: 18 June)

Event Time Altitude Azimuth Distance (km) Brightness Sun altitude
Rises 23:20:23 0° 334° (NNW) 3,848 - -64.9°
Reaches altitude 10° 23:23:25 10° 350° (N) 3,211 - -65.1°
Maximum altitude 23:29:51 23° 40° (NE) 2,951 - -65.6°
Drops below altitude 10° 23:38:55 10° 87° (E) 4,707 - -66.1°
Exits shadow 23:43:28 - 97° (E) 5,850 12.0 -66.3°
Sets 23:44:35 0° 99° (E) 6,131 12.1 -66.3°
